| time (UTC) | temp F | wind direction | speed MPH | gust MPH | rain 1hr in | rain 24hr in | rain mn in | humidity % | barometer mb |
| 20260507200041 | 46 | 360 | 1.0 | 4.0 | 0.00 | 0.00 | 0.00 | 67 | 1010.5 |
| 20260507194558 | 46 | 360 | 1.0 | 3.0 | 0.00 | 0.00 | 0.00 | 65 | 1010.5 |
| 20260507193046 | 46 | 360 | 1.0 | 4.0 | 0.00 | 0.00 | 0.00 | 64 | 1010.8 |
| 20260507191548 | 47 | 0 | 0.0 | 0.0 | 0.00 | 0.00 | 0.00 | 63 | 1010.9 |
| 20260507190047 | 46 | 0 | 0.0 | 4.0 | 0.00 | 0.00 | 0.00 | 70 | 1011.2 |
| 20260507184549 | 45 | 26 | 3.0 | 7.0 | 0.00 | 0.00 | 0.00 | 69 | 1011.3 |
| 20260507183045 | 45 | 19 | 3.0 | 5.0 | 0.00 | 0.00 | 0.00 | 70 | 1011.5 |
| 20260507181547 | 44 | 19 | 3.0 | 5.0 | 0.00 | 0.00 | 0.00 | 73 | 1011.6 |
| 20260507180045 | 45 | 11 | 3.0 | 5.0 | 0.00 | 0.00 | 0.00 | 71 | 1011.6 |
| 20260507174546 | 45 | 5 | 1.0 | 4.0 | 0.00 | 0.00 | 0.00 | 72 | 1011.6 |
| 20260507173115 | 44 | 11 | 4.0 | 8.0 | 0.00 | 0.00 | 0.00 | 73 | 1011.7 |
| 20260507171544 | 44 | 360 | 6.0 | 9.0 | 0.00 | 0.00 | 0.00 | 76 | 1011.9 |
| 20260507170049 | 45 | 5 | 6.0 | 9.0 | 0.00 | 0.00 | 0.00 | 74 | 1012.0 |
| 20260507164542 | 45 | 5 | 4.0 | 8.0 | 0.00 | 0.00 | 0.00 | 74 | 1012.1 |
| 20260507163046 | 45 | 5 | 5.0 | 8.0 | 0.00 | 0.00 | 0.00 | 73 | 1012.2 |
| 20260507161550 | 45 | 355 | 5.0 | 6.0 | 0.00 | 0.00 | 0.00 | 73 | 1012.4 |
| 20260507160053 | 45 | 345 | 5.0 | 8.0 | 0.00 | 0.00 | 0.00 | 72 | 1012.5 |
| 20260507154546 | 45 | 342 | 5.0 | 9.0 | 0.00 | 0.01 | 0.00 | 72 | 1012.7 |
| 20260507153041 | 45 | 340 | 8.0 | 10.0 | 0.00 | 0.01 | 0.00 | 71 | 1012.8 |
| 20260507151547 | 46 | 309 | 5.0 | 8.0 | 0.00 | 0.01 | 0.00 | 68 | 1012.7 |
| 20260507150047 | 46 | 293 | 3.0 | 6.0 | 0.00 | 0.01 | 0.00 | 69 | 1012.7 |
| 20260507144545 | 45 | 277 | 4.0 | 7.0 | 0.00 | 0.02 | 0.00 | 67 | 1012.8 |
| 20260507143058 | 45 | 277 | 3.0 | 7.0 | 0.00 | 0.02 | 0.00 | 70 | 1012.9 |
| 20260507141554 | 44 | 284 | 5.0 | 8.0 | 0.00 | 0.02 | 0.00 | 72 | 1013.0 |
| 20260507140041 | 43 | 304 | 7.0 | 11.0 | 0.00 | 0.02 | 0.00 | 75 | 1013.2 |
| 20260507134549 | 43 | 322 | 7.0 | 11.0 | 0.00 | 0.03 | 0.00 | 76 | 1013.2 |
| 20260507133118 | 43 | 333 | 10.0 | 13.0 | 0.00 | 0.03 | 0.00 | 75 | 1013.4 |
| 20260507131548 | 43 | 305 | 9.0 | 12.0 | 0.00 | 0.03 | 0.00 | 73 | 1013.3 |
| 20260507130057 | 43 | 313 | 9.0 | 13.0 | 0.00 | 0.03 | 0.00 | 72 | 1013.1 |
| 20260507124542 | 43 | 309 | 9.0 | 14.0 | 0.00 | 0.05 | 0.00 | 74 | 1013.1 |
| 20260507123049 | 43 | 309 | 10.0 | 14.0 | 0.00 | 0.05 | 0.00 | 76 | 1013.1 |
| 20260507121544 | 42 | 323 | 9.0 | 12.0 | 0.00 | 0.05 | 0.00 | 78 | 1013.2 |
| 20260507120045 | 42 | 288 | 3.0 | 8.0 | 0.00 | 0.05 | 0.00 | 80 | 1013.0 |
| 20260507114557 | 41 | 212 | 2.0 | 6.0 | 0.00 | 0.07 | 0.00 | 83 | 1013.0 |
| 20260507113041 | 40 | 212 | 4.0 | 6.0 | 0.00 | 0.07 | 0.00 | 82 | 1013.0 |
| 20260507111545 | 40 | 212 | 3.0 | 6.0 | 0.00 | 0.07 | 0.00 | 84 | 1012.9 |
| 20260507110046 | 39 | 212 | 3.0 | 4.0 | 0.00 | 0.07 | 0.00 | 85 | 1012.5 |
| 20260507104543 | 38 | 212 | 2.0 | 4.0 | 0.00 | 0.16 | 0.00 | 85 | 1012.5 |
| 20260507103045 | 38 | 212 | 3.0 | 5.0 | 0.00 | 0.16 | 0.00 | 85 | 1012.3 |
| 20260507101548 | 38 | 209 | 3.0 | 6.0 | 0.00 | 0.16 | 0.00 | 84 | 1012.4 |
| 20260507100050 | 38 | 211 | 4.0 | 6.0 | 0.00 | 0.16 | 0.00 | 84 | 1012.3 |
| 20260507094555 | 37 | 211 | 4.0 | 6.0 | 0.00 | 0.20 | 0.00 | 85 | 1012.1 |
| 20260507093043 | 37 | 211 | 3.0 | 6.0 | 0.00 | 0.20 | 0.00 | 86 | 1012.1 |
| 20260507091542 | 37 | 210 | 4.0 | 5.0 | 0.00 | 0.20 | 0.00 | 85 | 1012.4 |
| 20260507090042 | 37 | 218 | 2.0 | 4.0 | 0.00 | 0.20 | 0.00 | 85 | 1012.2 |
| 20260507084544 | 38 | 213 | 3.0 | 6.0 | 0.00 | 0.26 | 0.00 | 86 | 1012.3 |
| 20260507083052 | 38 | 213 | 3.0 | 6.0 | 0.00 | 0.26 | 0.00 | 86 | 1012.3 |
| 20260507081543 | 38 | 209 | 3.0 | 6.0 | 0.00 | 0.26 | 0.00 | 86 | 1012.2 |
| 20260507080053 | 39 | 209 | 3.0 | 5.0 | 0.00 | 0.26 | 0.00 | 84 | 1012.3 |
| 20260507074552 | 41 | 221 | 3.0 | 7.0 | 0.00 | 0.36 | 0.00 | 84 | 1012.3 |
| 20260507073049 | 42 | 281 | 6.0 | 12.0 | 0.00 | 0.36 | 0.00 | 86 | 1012.6 |
| 20260507071546 | 41 | 275 | 6.0 | 9.0 | 0.00 | 0.36 | 0.00 | 84 | 1012.5 |
| 20260507070054 | 41 | 242 | 4.0 | 7.0 | 0.00 | 0.36 | 0.00 | 80 | 1012.4 |
| 20260507064550 | 43 | 221 | 4.0 | 12.0 | 0.00 | 0.47 | 0.00 | 75 | 1012.3 |
| 20260507063046 | 44 | 300 | 10.0 | 13.0 | 0.00 | 0.47 | 0.00 | 77 | 1012.1 |
| 20260507061548 | 44 | 296 | 9.0 | 14.0 | 0.00 | 0.47 | 0.00 | 77 | 1012.1 |
| 20260507060048 | 44 | 295 | 12.0 | 16.0 | 0.00 | 0.47 | 0.00 | 75 | 1012.4 |
| 20260507054546 | 44 | 293 | 13.0 | 17.0 | 0.00 | 0.56 | 0.00 | 76 | 1012.6 |
| 20260507053044 | 44 | 291 | 13.0 | 19.0 | 0.00 | 0.56 | 0.00 | 76 | 1012.6 |
| 20260507051544 | 44 | 287 | 13.0 | 18.0 | 0.00 | 0.56 | 0.00 | 76 | 1012.7 |
| 20260507050046 | 44 | 295 | 14.0 | 19.0 | 0.00 | 0.56 | 0.00 | 77 | 1012.8 |
| 20260507044555 | 44 | 290 | 12.0 | 16.0 | 0.00 | 0.61 | 0.00 | 79 | 1012.7 |
| 20260507043048 | 44 | 290 | 13.0 | 17.0 | 0.00 | 0.61 | 0.00 | 79 | 1012.6 |
| 20260507041547 | 45 | 302 | 13.0 | 17.0 | 0.00 | 0.61 | 0.00 | 85 | 1012.5 |
| 20260507040048 | 45 | 284 | 13.0 | 19.0 | 0.00 | 0.61 | 0.00 | 89 | 1012.5 |
| 20260507034547 | 44 | 300 | 12.0 | 16.0 | 0.00 | 0.62 | 0.61 | 91 | 1012.5 |
| 20260507033100 | 44 | 286 | 10.0 | 14.0 | 0.00 | 0.62 | 0.61 | 92 | 1012.3 |
| 20260507031555 | 43 | 284 | 9.0 | 12.0 | 0.00 | 0.62 | 0.61 | 93 | 1012.2 |
| 20260507024602 | 43 | 265 | 8.0 | 11.0 | 0.00 | 0.65 | 0.61 | 93 | 1012.1 |
| 20260507023043 | 42 | 276 | 6.0 | 10.0 | 0.00 | 0.65 | 0.61 | 92 | 1012.3 |
| 20260507021552 | 42 | 263 | 6.0 | 8.0 | 0.00 | 0.65 | 0.61 | 92 | 1012.3 |
| 20260507020056 | 42 | 243 | 5.0 | 9.0 | 0.00 | 0.65 | 0.61 | 92 | 1012.3 |
| 20260507014552 | 43 | 298 | 9.0 | 14.0 | 0.00 | 0.67 | 0.61 | 93 | 1012.2 |
| 20260507013042 | 42 | 302 | 10.0 | 16.0 | 0.00 | 0.67 | 0.61 | 92 | 1012.4 |
| 20260507011548 | 42 | 305 | 14.0 | 17.0 | 0.00 | 0.67 | 0.61 | 91 | 1012.2 |
| 20260507010047 | 42 | 315 | 13.0 | 16.0 | 0.00 | 0.67 | 0.61 | 90 | 1012.1 |
| 20260507004545 | 43 | 329 | 12.0 | 16.0 | 0.00 | 0.71 | 0.61 | 87 | 1011.7 |
| 20260507003045 | 44 | 329 | 6.0 | 9.0 | 0.00 | 0.71 | 0.61 | 87 | 1011.7 |
| 20260507001547 | 44 | 45 | 1.0 | 3.0 | 0.00 | 0.71 | 0.61 | 85 | 1011.2 |
| 20260507000049 | 44 | 0 | 1.0 | 4.0 | 0.00 | 0.71 | 0.61 | 85 | 1011.1 |
| 20260506234554 | 45 | 45 | 2.0 | 4.0 | 0.00 | 0.75 | 0.61 | 86 | 1011.1 |
| 20260506233050 | 45 | 45 | 3.0 | 6.0 | 0.00 | 0.75 | 0.61 | 86 | 1010.8 |
| 20260506231552 | 45 | 53 | 3.0 | 6.0 | 0.00 | 0.75 | 0.61 | 85 | 1010.7 |
| 20260506230041 | 45 | 84 | 0.0 | 3.0 | 0.00 | 0.75 | 0.61 | 85 | 1010.3 |
| 20260506224545 | 45 | 84 | 1.0 | 3.0 | 0.00 | 0.77 | 0.61 | 84 | 1009.9 |
| 20260506223045 | 45 | 84 | 2.0 | 4.0 | 0.00 | 0.77 | 0.61 | 84 | 1009.7 |
| 20260506221542 | 45 | 0 | 1.0 | 3.0 | 0.00 | 0.77 | 0.61 | 83 | 1009.9 |
| 20260506220051 | 45 | 0 | 0.0 | 0.0 | 0.00 | 0.77 | 0.61 | 83 | 1010.0 |
| 20260506214549 | 45 | 0 | 0.0 | 0.0 | 0.00 | 0.77 | 0.61 | 82 | 1010.2 |
| 20260506213047 | 45 | 0 | 0.0 | 2.0 | 0.00 | 0.77 | 0.61 | 82 | 1010.1 |
| 20260506211544 | 45 | 329 | 2.0 | 4.0 | 0.00 | 0.77 | 0.61 | 83 | 1010.1 |
| 20260506210048 | 45 | 0 | 0.0 | 2.0 | 0.00 | 0.77 | 0.61 | 85 | 1009.9 |
| 20260506204543 | 44 | 0 | 0.0 | 2.0 | 0.00 | 0.77 | 0.61 | 85 | 1010.0 |
| 20260506203042 | 45 | 329 | 0.0 | 3.0 | 0.00 | 0.77 | 0.61 | 86 | 1010.0 |
| 20260506201545 | 45 | 329 | 2.0 | 4.0 | 0.00 | 0.77 | 0.61 | 87 | 1010.1 |